Location: Unspecified
(0.0000°N, 0.0000°E)
Time: 08:08:33
(UTC+00:00)

ISS - Visible Passes

Search period start: 03 April 2020 00:00
Search period end: 13 April 2020 00:00
Orbit: 418 x 423 km, 51.6° (Epoch: 03 April)

Date Brightness Start Highest point End Pass type
(mag) Time Alt. Az. Time Alt. Az. Time Alt. Az.
11 Apr -2.4 19:19:11 10° NNW 19:21:14 28° NNE 19:21:14 28° NNE visible
12 Apr -1.9 18:32:53 10° NNE 18:35:06 17° NE 18:36:52 12° E visible
12 Apr -0.3 20:09:38 10° W 20:09:55 11° W 20:09:55 11° W visible
